KC5KKT Weather Reports


time (UTC)temp
F
wind
direction
speed
knots
gust
knots
rain 1hr
in
rain 24hr
in
rain mn
in
humidity
%
barometer
mb
20260509134539 70 0 0.0 2.6 0.00 0.00 0.00 91 1011.3
20260509133040 67 264 0.9 5.2 0.00 0.00 0.00 95 1011.4
20260509131539 66 0 2.6 4.3 0.00 0.00 0.00 97 1011.4
20260509130047 65 0 0.0 3.5 0.00 0.00 0.00 98 1011.2
20260509124534 65 0 1.7 3.5 0.00 0.00 0.00 98 1011.2
20260509123048 64 271 0.9 2.6 0.00 0.00 0.00 98 1011.2
20260509121538 63 0 0.0 1.7 0.00 0.00 0.00 97 1010.9
20260509120038 63 0 0.0 2.6 0.00 0.00 0.00 96 1010.7
20260509114537 64 0 0.0 0.0 0.00 0.00 0.00 97 1010.1
20260509113039 65 0 0.0 0.0 0.00 0.00 0.00 97 1009.8
20260509111540 65 0 0.0 1.7 0.00 0.00 0.00 97 1009.8
20260509110040 64 0 0.0 0.9 0.00 0.00 0.00 96 1009.7
20260509104540 65 355 0.0 0.0 0.00 0.00 0.00 96 1009.6
20260509103046 65 0 0.0 1.7 0.00 0.00 0.00 96 1009.6
20260509101537 65 338 2.6 4.3 0.00 0.00 0.00 96 1009.3
20260509100037 65 352 2.6 5.2 0.00 0.00 0.00 95 1009.0
20260509094538 66 345 3.5 4.3 0.00 0.00 0.00 94 1009.1
20260509093041 67 18 3.5 5.2 0.00 0.00 0.00 94 1008.9
20260509091538 67 326 2.6 4.3 0.00 0.00 0.00 93 1009.0
20260509090047 68 19 3.5 6.1 0.00 0.00 0.00 92 1008.9
20260509084541 69 17 4.3 6.1 0.00 0.00 0.00 91 1009.2
20260509083038 69 21 5.2 7.0 0.00 0.00 0.00 91 1009.0
20260509081535 70 53 0.9 5.2 0.00 0.00 0.00 90 1009.0
20260509080042 70 34 0.9 7.0 0.00 0.00 0.00 90 1009.1
20260509074539 70 64 2.6 8.7 0.00 0.00 0.00 90 1009.0
20260509073041 70 28 2.6 11.3 0.00 0.00 0.00 91 1008.8
20260509071541 69 76 5.2 13.9 0.00 0.00 0.00 91 1008.4
20260509070043 69 33 2.6 6.1 0.00 0.00 0.00 91 1008.2
20260509064543 69 156 6.1 9.6 0.00 0.00 0.00 90 1008.4
20260509063037 70 0 0.0 6.1 0.00 0.00 0.00 90 1009.7
20260509061538 70 0 0.0 5.2 0.00 0.00 0.00 90 1009.8
20260509060040 70 0 0.0 2.6 0.00 0.00 0.00 89 1010.4
20260509054551 70 0 0.0 6.1 0.00 0.00 0.00 88 1010.4
20260509053037 70 250 2.6 14.8 0.00 0.00 0.00 88 1010.6
20260509051539 69 314 3.5 13.0 0.00 0.00 0.00 89 1010.0
20260509050052 69 221 10.4 16.5 0.00 0.00 0.00 90 1009.3
20260509044535 69 124 2.6 11.3 0.00 0.00 0.00 90 1009.3
20260509043037 69 156 7.0 10.4 0.00 0.00 0.00 89 1010.5
20260509041538 69 233 3.5 6.1 0.00 0.00 0.00 88 1011.2
20260509040037 69 0 0.0 4.3 0.00 0.00 0.00 88 1011.8
20260509034539 69 334 1.7 3.5 0.00 0.00 0.00 87 1011.2
20260509033038 70 141 2.6 9.6 0.00 0.00 0.00 86 1009.7
20260509031551 70 168 5.2 9.6 0.00 0.00 0.00 86 1009.1
20260509030040 70 146 0.0 3.5 0.00 0.00 0.00 85 1009.7
20260509024541 70 0 0.0 3.5 0.00 0.00 0.00 84 1009.7
20260509023039 70 88 2.6 5.2 0.00 0.00 0.00 84 1009.1
20260509021537 70 150 7.0 11.3 0.00 0.00 0.00 84 1008.3
20260509020037 71 0 0.0 0.9 0.00 0.00 0.00 83 1009.6
20260509014539 71 18 0.9 2.6 0.00 0.00 0.00 83 1009.4
20260509013041 71 118 0.0 2.6 0.00 0.00 0.00 82 1008.5
20260509011547 72 0 0.9 9.6 0.00 0.00 0.00 80 1007.7
20260509010044 73 144 3.5 11.3 0.00 0.00 0.00 79 1007.5
20260509004548 74 150 5.2 11.3 0.00 0.00 0.00 77 1007.8
20260509003040 75 184 5.2 9.6 0.00 0.00 0.00 76 1008.1
20260509001535 76 143 6.1 11.3 0.00 0.00 0.00 74 1008.0
20260509000039 76 158 5.2 10.4 0.00 0.00 0.00 72 1007.6
20260508234540 77 174 3.5 10.4 0.00 0.00 0.00 71 1007.6
20260508233038 77 158 6.1 13.0 0.00 0.00 0.00 72 1007.5
20260508231539 78 124 2.6 12.2 0.00 0.00 0.00 72 1007.6
20260508230037 79 160 6.1 13.9 0.00 0.00 0.00 69 1007.7
20260508224537 80 90 3.5 10.4 0.00 0.00 0.00 68 1007.8
20260508223045 80 122 2.6 11.3 0.00 0.00 0.00 68 1007.9
20260508221540 80 155 5.2 11.3 0.00 0.00 0.00 67 1008.0
20260508220043 80 162 5.2 10.4 0.00 0.00 0.00 66 1008.0
20260508214537 80 134 5.2 11.3 0.00 0.00 0.00 67 1008.1
20260508213046 80 0 1.7 12.2 0.00 0.00 0.00 66 1008.1
20260508211543 80 180 7.8 13.0 0.00 0.00 0.00 64 1008.6
20260508210044 80 151 5.2 15.6 0.00 0.00 0.00 66 1008.9
20260508204541 80 163 6.1 10.4 0.00 0.00 0.00 63 1009.1
20260508203045 80 186 5.2 13.9 0.00 0.00 0.00 66 1009.3
20260508201546 79 0 3.5 9.6 0.00 0.00 0.00 66 1009.4
20260508200042 78 132 4.3 14.8 0.00 0.00 0.00 67 1009.7
20260508194538 78 142 7.0 13.9 0.00 0.00 0.00 67 1009.9
20260508193040 77 153 6.1 13.9 0.00 0.00 0.00 67 1010.1
20260508191537 77 190 7.8 11.3 0.00 0.00 0.00 68 1010.3
20260508190043 76 139 3.5 12.2 0.00 0.00 0.00 65 1010.5
20260508184547 76 146 5.2 9.6 0.00 0.00 0.00 67 1010.8
20260508183041 75 105 4.3 10.4 0.00 0.00 0.00 66 1011.1
20260508181604 74 219 4.3 9.6 0.00 0.00 0.00 65 1011.4
20260508180045 74 136 1.7 9.6 0.00 0.00 0.00 66 1011.6
20260508174538 73 0 0.9 10.4 0.00 0.00 0.00 68 1011.9
20260508173040 73 133 4.3 10.4 0.00 0.00 0.00 68 1012.1
20260508171543 73 179 2.6 9.6 0.00 0.00 0.00 70 1012.4
20260508170039 71 136 6.1 10.4 0.00 0.00 0.00 71 1012.8
20260508164542 70 0 4.3 10.4 0.00 0.00 0.00 72 1013.0
20260508163037 71 155 6.1 12.2 0.00 0.00 0.00 70 1013.4
20260508161538 71 153 1.7 7.8 0.00 0.00 0.00 72 1013.4
20260508160044 68 174 4.3 11.3 0.00 0.00 0.00 78 1013.6
20260508154550 67 167 3.5 11.3 0.00 0.00 0.00 83 1013.7
20260508153037 65 155 7.0 12.2 0.00 0.00 0.00 88 1013.8
20260508151538 63 164 4.3 7.0 0.00 0.00 0.00 93 1014.0
20260508150043 63 0 2.6 6.1 0.00 0.00 0.00 94 1014.0
20260508144539 62 0 0.9 3.5 0.00 0.00 0.00 94 1014.1
20260508143039 62 162 1.7 4.3 0.00 0.00 0.00 91 1014.4
20260508141547 62 164 3.5 8.7 0.00 0.00 0.00 89 1014.4
20260508140038 62 143 4.3 7.8 0.00 0.00 0.00 87 1014.3